Regional Weather Roundup
Issued by NWS Bismarck, ND

Home | Current Version | Previous Version | Text Only | Print | Product List | Glossary On
Versions: 1 2 3 4 5 6 7 8 9 10 11 12 13 14 15 16 17 18 19 20 21 22 23 24 25 26 27 28 29 30 31 32 33 34 35 36 37 38 39 40 41 42 43 44 45 46 47 48 49 50
000
ASUS43 KBIS 291202
RWRBIS

NWR BROADCAST TEXT
NATIONAL WEATHER SERVICE BISMARCK ND
700 AM CDT FRI APR 29 2016

NOTE: "FAIR" INDICATES FEW OR NO CLOUDS BELOW 12,000 FEET WITH NO
SIGNIFICANT WEATHER AND/OR OBSTRUCTIONS TO VISIBILITY.


CITY           SKY/WX    TMP DP  RH WIND       PRES   REMARKS
WILLISTON      PTCLDY    34  24  67 NE5       30.18R
MINOT          PTCLDY    34  21  59 N5        30.20S
MINOT AFB      PTCLDY    29  23  78 NW5       30.20R
BISMARCK       CLOUDY    35  31  85 NE7       30.18R
DICKINSON      CLOUDY    35  27  72 NE7       30.12S
GARRISON         N/A     31  23  72 N3        30.18S
HETTINGER ARPT CLOUDY    38  33  82 E5        30.13R
JAMESTOWN      CLOUDY    32  28  85 N5        30.16S
CARRINGTON     FAIR      36  28  75 N5        30.20S
HAZEN          FAIR      27  25  93 CALM      30.20S
LINTON         FAIR      32  32 100 CALM      30.18R
OAKES            N/A    N/A N/A N/A MISG        N/A
STANLEY        FAIR      32  23  69 NE5       30.21S
$$

CITY           SKY/WX    TMP DP  RH WIND       PRES   REMARKS
GRAND FORKS    MOCLDY    34  29  82 N6        30.21R
GRAND FORKS AF PTCLDY    34  27  74 N9        30.21R
DEVILS LAKE    CLOUDY    35  26  69 N3        30.21R
FARGO          CLOUDY    36  32  85 E5        30.16R
CAVALIER       FAIR      34  25  69 N6        30.25R
GRAFTON        FAIR      34  27  75 N7        30.25R
GWINNER        FAIR      34  34 100 SW6       30.16S
LANGDON        FAIR      34  21  60 NE9       30.22S
$$

CITY           SKY/WX    TMP DP  RH WIND       PRES   REMARKS
ABERDEEN       PTCLDY    32  30  92 S6        30.19R FOG
MOBRIDGE       CLOUDY    41  38  89 CALM      30.12R
BUFFALO          N/A     37  34  89 E3        30.04S
RAPID CITY     CLOUDY    36  34  92 CALM      30.11S
GLASGOW        CLOUDY    38  34  85 NE9       30.11S
SIDNEY         CLOUDY    37  27  65 N7        30.15S
WOLF POINT     CLOUDY    40  34  79 NE6       30.14F
GLENDIVE       CLOUDY    37  36  93 CALM      30.15S
MILES CITY     CLOUDY    40  34  79 E6        30.09S
BAKER          CLOUDY    38  34  85 CALM      30.12S
$$

CITY           SKY/WX    TMP DP  RH WIND       PRES   REMARKS
BILLINGS       CLOUDY    35  34  96 NE5       30.02S
GREAT FALLS    CLOUDY    35  33  92 CALM      29.98F
$$




USA.gov is the U.S. government's official web portal to all federal, state and local government web resources and services.